Retour au catalogue

STARLINK-30068

ActifCommunicationsVLEO
NORAD 56698·PAYLOAD·🇺🇸 United States

Lancé May 19, 2023 depuis Cape Canaveral Space Force Station

Loading…

Prochains Passages (prochaines 24 heures)

TLE

FraisSource: CelesTrak SupGP

Époque: Sep 14, 2026, 21:26 UTC

1 56698C 23067L   26257.89354167  .00015430  00000+0  55905-3 0  2573
2 56698  43.0018 271.3658 0001421 260.6356 146.0961 15.27560128    15

Suivez STARLINK-30068 en temps réel avec AllMySat

Download on the App Store